User: anonymous   Login
Location: *
(57.8420°S, 159.8600°W)
Time: 23:38:02
(UTC+00:00)
Language:

Meteor 1-27 Rocket - Orbit

View from above orbital plane
View from above orbital plane
View from above satellite
View from above satellite

Ground track
Ground track

The orbit data is extracted from the following two-line orbital elements,

1 09904U 77024B   21204.51963287  .00000214  00000-0  11873-3 0  9992
2 09904  81.2633 122.9706 0055282  70.6670 290.0465 14.06908977273102
Epoch (UTC): 23 July 2021 12:28:16
Eccentricity: 0.0055282
inclination: 81.2633°
perigee height: 830 km
apogee height: 910 km
right ascension of ascending node: 122.9706°
argument of perigee: 70.6670°
revolutions per day: 14.06908977
mean anomaly at epoch: 290.0465°
orbit number at epoch: 27310

The dashed part of the orbit path shows where the satellite is in the earth's shadow,  

DLR